Time,TemperatureF,DewpointF,PressureIn,WindDirection,WindDirectionDegrees,WindSpeedMPH,WindSpeedGustMPH,Humidity,HourlyPrecipIn,Conditions,Clouds,dailyrainin,SolarRadiationWatts/m^2,SoftwareType,DateUTC
2013-07-22 00:00:00,81.6,77.0,30.15,NNE,22,0.0,2.0,86,0.00,,,0.00,0.00,VWS V14.01,2013-07-22 04:00:00,
2013-07-22 00:15:00,81.4,76.8,30.16,NNE,22,0.0,1.0,86,0.00,,,0.00,0.00,VWS V14.01,2013-07-22 04:15:00,
2013-07-22 00:30:00,81.5,76.9,30.15,NNE,22,0.0,2.0,86,0.00,,,0.00,0.00,VWS V14.01,2013-07-22 04:30:00,
2013-07-22 00:45:00,81.5,76.9,30.15,East,90,0.0,3.0,86,0.00,,,0.00,0.00,VWS V14.01,2013-07-22 04:45:00,
2013-07-22 01:00:00,81.7,77.1,30.15,NE,45,0.0,3.0,86,0.00,,,0.00,0.00,VWS V14.01,2013-07-22 05:00:00,
2013-07-22 01:15:00,81.6,76.7,30.15,ESE,112,1.0,7.0,85,0.00,,,0.00,0.00,VWS V14.01,2013-07-22 05:15:00,
2013-07-22 01:30:00,81.3,76.4,30.14,ESE,112,0.0,3.0,85,0.00,,,0.00,0.00,VWS V14.01,2013-07-22 05:30:00,
2013-07-22 01:45:00,81.0,76.4,30.14,East,90,0.0,2.0,86,0.00,,,0.00,0.00,VWS V14.01,2013-07-22 05:45:00,
2013-07-22 02:00:00,80.8,76.2,30.14,ENE,68,0.0,4.0,86,0.00,,,0.00,0.00,VWS V14.01,2013-07-22 06:00:00,
2013-07-22 02:15:00,80.6,76.4,30.14,ENE,68,0.0,2.0,87,0.00,,,0.00,0.00,VWS V14.01,2013-07-22 06:15:00,
2013-07-22 02:30:00,80.3,76.4,30.13,ENE,68,0.0,1.0,88,0.00,,,0.00,0.00,VWS V14.01,2013-07-22 06:30:00,
2013-07-22 02:45:00,80.2,76.7,30.12,ESE,112,0.0,2.0,89,0.00,,,0.00,0.00,VWS V14.01,2013-07-22 06:45:00,
2013-07-22 03:00:00,80.1,76.6,30.11,ESE,112,0.0,1.0,89,0.00,,,0.00,0.00,VWS V14.01,2013-07-22 07:00:00,
2013-07-22 03:15:00,80.0,76.5,30.11,ESE,112,0.0,1.0,89,0.00,,,0.00,0.00,VWS V14.01,2013-07-22 07:15:00,
2013-07-22 03:30:00,79.8,76.3,30.11,ESE,112,0.0,1.0,89,0.00,,,0.00,0.00,VWS V14.01,2013-07-22 07:30:00,
2013-07-22 03:45:00,79.6,76.1,30.11,ESE,112,0.0,1.0,89,0.00,,,0.00,0.00,VWS V14.01,2013-07-22 07:45:00,
2013-07-22 04:00:00,79.4,75.9,30.10,ESE,112,0.0,0.0,89,0.00,,,0.00,0.00,VWS V14.01,2013-07-22 08:00:00,
2013-07-22 04:15:00,79.4,75.9,30.09,SE,135,0.0,3.0,89,0.00,,,0.00,0.00,VWS V14.01,2013-07-22 08:15:00,
2013-07-22 04:30:00,79.3,75.8,30.08,SE,135,0.0,2.0,89,0.00,,,0.00,0.00,VWS V14.01,2013-07-22 08:30:00,
2013-07-22 04:45:00,79.2,75.7,30.09,SE,135,0.0,2.0,89,0.00,,,0.00,0.00,VWS V14.01,2013-07-22 08:45:00,
2013-07-22 05:00:00,78.5,75.7,30.08,SE,135,0.0,0.0,91,0.00,,,0.00,,VWS V14.01,2013-07-22 09:00:00,
2013-07-22 05:15:00,78.9,75.7,30.09,SE,135,0.0,1.0,90,0.00,,,0.00,0.00,VWS V14.01,2013-07-22 09:15:00,
2013-07-22 05:20:00,78.5,75.7,30.08,SE,135,0.0,0.0,91,0.00,,,0.00,,VWS V14.01,2013-07-22 09:20:00,
2013-07-22 05:25:00,78.2,75.4,30.09,SE,124,0.0,0.0,91,0.00,,,0.00,,VWS V14.01,2013-07-22 09:25:00,
2013-07-22 05:30:00,78.2,75.7,30.09,SE,124,0.0,0.0,92,0.00,,,0.00,,VWS V14.01,2013-07-22 09:30:00,
2013-07-22 05:35:00,78.5,76.0,30.09,ESE,103,0.0,1.0,92,0.00,,,0.00,,VWS V14.01,2013-07-22 09:35:00,
2013-07-22 05:40:00,78.7,76.2,30.10,East,93,0.0,1.0,92,0.00,,,0.00,,VWS V14.01,2013-07-22 09:40:00,
2013-07-22 05:45:00,78.8,75.9,30.10,East,93,0.0,0.0,91,0.00,,,0.00,,VWS V14.01,2013-07-22 09:45:00,
2013-07-22 05:50:00,78.8,75.9,30.10,East,93,0.0,1.0,91,0.00,,,0.00,,VWS V14.01,2013-07-22 09:50:00,
2013-07-22 05:55:00,78.8,75.9,30.10,East,93,0.0,1.0,91,0.00,,,0.00,,VWS V14.01,2013-07-22 09:55:00,
2013-07-22 06:00:00,78.8,75.9,30.10,East,93,0.0,1.0,91,0.00,,,0.00,,VWS V14.01,2013-07-22 10:00:00,
2013-07-22 06:05:00,78.8,75.9,30.10,East,93,0.0,2.0,91,0.00,,,0.00,,VWS V14.01,2013-07-22 10:05:00,
2013-07-22 06:10:00,78.8,75.9,30.10,East,93,0.0,2.0,91,0.00,,,0.00,,VWS V14.01,2013-07-22 10:10:00,
2013-07-22 06:15:00,78.9,76.1,30.10,East,93,1.0,2.0,91,0.00,,,0.00,,VWS V14.01,2013-07-22 10:15:00,
2013-07-22 06:20:00,78.9,76.1,30.10,East,93,0.0,2.0,91,0.00,,,0.00,,VWS V14.01,2013-07-22 10:20:00,
2013-07-22 06:25:00,78.9,76.1,30.10,East,93,1.0,2.0,91,0.00,,,0.00,,VWS V14.01,2013-07-22 10:25:00,
2013-07-22 06:30:00,78.9,76.1,30.09,East,93,0.0,1.0,91,0.00,,,0.00,,VWS V14.01,2013-07-22 10:30:00,
2013-07-22 06:35:00,78.9,76.1,30.10,East,93,0.0,2.0,91,0.00,,,0.00,,VWS V14.01,2013-07-22 10:35:00,
2013-07-22 06:40:00,79.0,76.2,30.10,East,93,0.0,2.0,91,0.00,,,0.00,,VWS V14.01,2013-07-22 10:40:00,
2013-07-22 06:45:00,79.1,76.2,30.10,East,93,0.0,0.0,91,0.00,,,0.00,,VWS V14.01,2013-07-22 10:45:00,
2013-07-22 06:50:00,79.0,76.2,30.10,East,93,0.0,0.0,91,0.00,,,0.00,,VWS V14.01,2013-07-22 10:50:00,
2013-07-22 06:55:00,79.0,76.2,30.10,East,93,0.0,1.0,91,0.00,,,0.00,,VWS V14.01,2013-07-22 10:55:00,
2013-07-22 07:00:00,79.2,76.7,30.10,East,93,0.0,0.0,92,0.00,,,0.00,,VWS V14.01,2013-07-22 11:00:00,
2013-07-22 07:05:00,79.1,76.2,30.10,East,93,0.0,0.0,91,0.00,,,0.00,,VWS V14.01,2013-07-22 11:05:00,
2013-07-22 07:10:00,79.0,76.2,30.10,East,93,0.0,1.0,91,0.00,,,0.00,,VWS V14.01,2013-07-22 11:10:00,
2013-07-22 07:15:00,79.0,76.2,30.11,East,93,0.0,1.0,91,0.00,,,0.00,,VWS V14.01,2013-07-22 11:15:00,
2013-07-22 07:20:00,79.1,76.2,30.11,East,93,1.0,2.0,91,0.00,,,0.00,,VWS V14.01,2013-07-22 11:20:00,
2013-07-22 07:25:00,79.3,76.4,30.11,South,184,0.0,3.0,91,0.00,,,0.00,,VWS V14.01,2013-07-22 11:25:00,
2013-07-22 07:30:00,79.5,76.7,30.11,South,184,0.0,0.0,91,0.00,,,0.00,,VWS V14.01,2013-07-22 11:30:00,
2013-07-22 07:35:00,79.6,76.4,30.11,South,184,0.0,1.0,90,0.00,,,0.00,,VWS V14.01,2013-07-22 11:35:00,
2013-07-22 07:40:00,79.6,76.4,30.11,South,184,1.0,1.0,90,0.00,,,0.00,,VWS V14.01,2013-07-22 11:40:00,
2013-07-22 07:45:00,79.8,76.6,30.12,South,184,0.0,1.0,90,0.00,,,0.00,,VWS V14.01,2013-07-22 11:45:00,
2013-07-22 07:50:00,79.9,76.7,30.12,South,184,0.0,1.0,90,0.00,,,0.00,,VWS V14.01,2013-07-22 11:50:00,
2013-07-22 07:55:00,79.9,76.7,30.12,South,184,0.0,1.0,90,0.00,,,0.00,,VWS V14.01,2013-07-22 11:55:00,
2013-07-22 08:00:00,79.9,76.7,30.12,South,184,0.0,0.0,90,0.00,,,0.00,,VWS V14.01,2013-07-22 12:00:00,
2013-07-22 08:05:00,80.0,76.8,30.12,South,184,0.0,0.0,90,0.00,,,0.00,,VWS V14.01,2013-07-22 12:05:00,
2013-07-22 08:10:00,80.1,76.9,30.13,South,184,0.0,0.0,90,0.00,,,0.00,,VWS V14.01,2013-07-22 12:10:00,
2013-07-22 08:15:00,80.3,77.1,30.13,South,184,0.0,0.0,90,0.00,,,0.00,,VWS V14.01,2013-07-22 12:15:00,
2013-07-22 08:20:00,80.5,77.3,30.13,South,184,0.0,0.0,90,0.00,,,0.00,,VWS V14.01,2013-07-22 12:20:00,
2013-07-22 08:25:00,80.8,77.3,30.13,South,184,1.0,1.0,89,0.00,,,0.00,,VWS V14.01,2013-07-22 12:25:00,
2013-07-22 08:30:00,81.0,77.5,30.13,South,184,0.0,0.0,89,0.00,,,0.00,,VWS V14.01,2013-07-22 12:30:00,
2013-07-22 08:35:00,81.3,77.4,30.14,South,184,0.0,0.0,88,0.00,,,0.00,,VWS V14.01,2013-07-22 12:35:00,
2013-07-22 08:40:00,81.6,77.4,30.14,South,184,0.0,2.0,87,0.00,,,0.00,,VWS V14.01,2013-07-22 12:40:00,
2013-07-22 08:45:00,81.9,77.7,30.14,South,176,0.0,3.0,87,0.00,,,0.00,,VWS V14.01,2013-07-22 12:45:00,
2013-07-22 08:50:00,82.2,77.6,30.14,South,176,2.0,3.0,86,0.00,,,0.00,,VWS V14.01,2013-07-22 12:50:00,
2013-07-22 08:55:00,82.4,77.4,30.14,South,177,0.0,4.0,85,0.00,,,0.00,,VWS V14.01,2013-07-22 12:55:00,
2013-07-22 09:00:00,82.9,77.6,30.14,South,188,2.0,2.0,84,0.00,,,0.00,,VWS V14.01,2013-07-22 13:00:00,
2013-07-22 09:05:00,83.2,77.5,30.14,SSE,159,1.0,4.0,83,0.00,,,0.00,,VWS V14.01,2013-07-22 13:05:00,
2013-07-22 09:10:00,83.3,77.2,30.14,South,187,2.0,4.0,82,0.00,,,0.00,,VWS V14.01,2013-07-22 13:10:00,
2013-07-22 09:15:00,83.5,77.8,30.14,ESE,121,3.0,3.0,83,0.00,,,0.00,,VWS V14.01,2013-07-22 13:15:00,
2013-07-22 09:20:00,84.1,77.3,30.14,South,177,2.0,5.0,80,0.00,,,0.00,,VWS V14.01,2013-07-22 13:20:00,
2013-07-22 09:25:00,84.4,76.8,30.14,East,96,0.0,7.0,78,0.00,,,0.00,,VWS V14.01,2013-07-22 13:25:00,
2013-07-22 09:30:00,84.9,76.5,30.14,SSE,147,0.0,1.0,76,0.00,,,0.00,,VWS V14.01,2013-07-22 13:30:00,
2013-07-22 09:35:00,85.0,76.6,30.14,South,186,4.0,10.0,76,0.00,,,0.00,,VWS V14.01,2013-07-22 13:35:00,
2013-07-22 09:40:00,84.4,76.0,30.14,SSW,195,7.0,10.0,76,0.00,,,0.00,,VWS V14.01,2013-07-22 13:40:00,
2013-07-22 09:45:00,84.3,75.5,30.14,SSE,155,6.0,7.0,75,0.00,,,0.00,,VWS V14.01,2013-07-22 13:45:00,
2013-07-22 09:50:00,84.7,75.5,30.14,SE,146,7.0,8.0,74,0.00,,,0.00,,VWS V14.01,2013-07-22 13:50:00,
2013-07-22 09:55:00,84.4,75.2,30.14,SSE,150,2.0,8.0,74,0.00,,,0.00,,VWS V14.01,2013-07-22 13:55:00,
2013-07-22 10:00:00,84.7,75.5,30.14,ESE,121,5.0,5.0,74,0.00,,,0.00,,VWS V14.01,2013-07-22 14:00:00,
2013-07-22 10:05:00,84.8,75.6,30.14,SSW,198,7.0,7.0,74,0.00,,,0.00,,VWS V14.01,2013-07-22 14:05:00,
2013-07-22 10:10:00,84.6,75.0,30.14,SSE,161,2.0,8.0,73,0.00,,,0.00,,VWS V14.01,2013-07-22 14:10:00,
2013-07-22 10:15:00,85.2,75.6,30.14,SSE,164,3.0,6.0,73,0.00,,,0.00,,VWS V14.01,2013-07-22 14:15:00,
2013-07-22 10:20:00,85.5,75.4,30.15,SSE,166,7.0,7.0,72,0.00,,,0.00,,VWS V14.01,2013-07-22 14:20:00,
2013-07-22 10:25:00,85.6,75.1,30.14,SSE,157,4.0,8.0,71,0.00,,,0.00,,VWS V14.01,2013-07-22 14:25:00,
2013-07-22 10:30:00,86.1,75.2,30.14,South,182,3.0,4.0,70,0.00,,,0.00,,VWS V14.01,2013-07-22 14:30:00,
2013-07-22 10:35:00,86.8,75.8,30.14,ESE,104,0.0,4.0,70,0.00,,,0.00,,VWS V14.01,2013-07-22 14:35:00,
2013-07-22 10:40:00,88.0,75.2,30.14,SE,145,6.0,6.0,66,0.00,,,0.00,,VWS V14.01,2013-07-22 14:40:00,
2013-07-22 10:45:00,88.5,75.2,30.14,ENE,68,0.0,0.0,65,0.00,,,0.00,,VWS V14.01,2013-07-22 14:45:00,
2013-07-22 10:50:00,89.8,75.5,30.14,ESE,111,2.0,5.0,63,0.00,,,0.00,,VWS V14.01,2013-07-22 14:50:00,
2013-07-22 10:55:00,90.4,74.6,30.14,East,90,0.0,5.0,60,0.00,,,0.00,,VWS V14.01,2013-07-22 14:55:00,
2013-07-22 11:00:00,90.7,74.9,30.14,South,188,3.0,6.0,60,0.00,,,0.00,,VWS V14.01,2013-07-22 15:00:00,
2013-07-22 11:05:00,88.8,74.6,30.14,SSE,153,0.0,9.0,63,0.00,,,0.00,,VWS V14.01,2013-07-22 15:05:00,
2013-07-22 11:10:00,89.2,75.0,30.14,SE,136,2.0,9.0,63,0.00,,,0.00,,VWS V14.01,2013-07-22 15:10:00,
2013-07-22 11:15:00,89.0,74.8,30.15,ESE,117,3.0,4.0,63,0.00,,,0.00,,VWS V14.01,2013-07-22 15:15:00,
2013-07-22 11:20:00,88.2,74.5,30.15,SSE,162,3.0,4.0,64,0.00,,,0.00,,VWS V14.01,2013-07-22 15:20:00,
2013-07-22 11:25:00,88.6,74.4,30.15,SSE,161,5.0,11.0,63,0.00,,,0.00,,VWS V14.01,2013-07-22 15:25:00,
2013-07-22 11:30:00,88.8,75.1,30.14,SSW,192,2.0,2.0,64,0.00,,,0.00,,VWS V14.01,2013-07-22 15:30:00,
2013-07-22 11:35:00,88.9,74.7,30.15,South,182,2.0,6.0,63,0.00,,,0.00,,VWS V14.01,2013-07-22 15:35:00,
2013-07-22 11:41:00,89.3,75.5,30.15,ESE,109,1.0,7.0,64,0.00,,,0.00,,VWS V14.01,2013-07-22 15:41:00,
2013-07-22 11:45:00,88.5,75.2,30.14,ENE,68,0.0,6.0,65,0.00,,,0.00,0.00,VWS V14.01,2013-07-22 15:45:00,
2013-07-22 11:46:00,89.3,75.1,30.14,SE,125,4.0,4.0,63,0.00,,,0.00,,VWS V14.01,2013-07-22 15:46:00,
2013-07-22 11:51:00,88.1,74.9,30.15,SSE,153,4.0,8.0,65,0.00,,,0.00,,VWS V14.01,2013-07-22 15:51:00,
2013-07-22 11:56:00,87.9,74.7,30.15,ESE,123,9.0,9.0,65,0.00,,,0.00,,VWS V14.01,2013-07-22 15:56:00,
2013-07-22 12:00:00,90.7,74.9,30.15,SSE,159,5.0,6.0,60,0.00,,,0.00,0.00,VWS V14.01,2013-07-22 16:00:00,
2013-07-22 12:01:00,89.0,75.2,30.15,SE,132,2.0,5.0,64,0.00,,,0.00,,VWS V14.01,2013-07-22 16:01:00,
2013-07-22 12:06:00,88.5,74.8,30.14,South,173,2.0,8.0,64,0.00,,,0.00,,VWS V14.01,2013-07-22 16:06:00,
2013-07-22 12:11:00,88.0,74.3,30.15,SE,127,5.0,9.0,64,0.00,,,0.00,,VWS V14.01,2013-07-22 16:11:00,
2013-07-22 12:15:00,89.0,74.8,30.15,SE,138,4.0,12.0,63,0.00,,,0.00,0.00,VWS V14.01,2013-07-22 16:15:00,
2013-07-22 12:16:00,89.2,74.0,30.15,SSE,167,1.0,3.0,61,0.00,,,0.00,,VWS V14.01,2013-07-22 16:16:00,
2013-07-22 12:21:00,89.5,73.8,30.15,East,89,1.0,10.0,60,0.00,,,0.00,,VWS V14.01,2013-07-22 16:21:00,
2013-07-22 12:26:00,91.0,73.7,30.14,East,95,2.0,10.0,57,0.00,,,0.00,,VWS V14.01,2013-07-22 16:26:00,
2013-07-22 12:30:00,88.8,75.1,30.15,SSW,192,2.0,11.0,64,0.00,,,0.00,0.00,VWS V14.01,2013-07-22 16:30:00,
2013-07-22 12:31:00,91.9,72.9,30.14,South,188,2.0,5.0,54,0.00,,,0.00,,VWS V14.01,2013-07-22 16:31:00,
2013-07-22 12:36:00,92.0,73.0,30.14,SSE,149,2.0,10.0,54,0.00,,,0.00,,VWS V14.01,2013-07-22 16:36:00,
2013-07-22 12:41:00,90.2,72.4,30.14,SSW,202,5.0,10.0,56,0.00,,,0.00,,VWS V14.01,2013-07-22 16:41:00,
2013-07-22 12:45:00,89.3,75.1,30.14,South,190,2.0,8.0,63,0.00,,,0.00,0.00,VWS V14.01,2013-07-22 16:45:00,
2013-07-22 12:46:00,91.1,71.6,30.14,ESE,113,5.0,7.0,53,0.00,,,0.00,,VWS V14.01,2013-07-22 16:46:00,
2013-07-22 12:51:00,90.4,71.5,30.14,South,172,6.0,9.0,54,0.00,,,0.00,,VWS V14.01,2013-07-22 16:51:00,
2013-07-22 12:56:00,90.1,72.8,30.14,SSW,200,1.0,9.0,57,0.00,,,0.00,,VWS V14.01,2013-07-22 16:56:00,
2013-07-22 13:00:00,88.6,74.9,30.15,ESE,109,0.0,9.0,64,0.00,,,0.00,0.00,VWS V14.01,2013-07-22 17:00:00,
2013-07-22 13:01:00,90.9,73.0,30.14,South,188,3.0,6.0,56,0.00,,,0.00,,VWS V14.01,2013-07-22 17:01:00,
2013-07-22 13:06:00,91.3,73.4,30.14,SE,137,6.0,10.0,56,0.00,,,0.00,,VWS V14.01,2013-07-22 17:06:00,
2013-07-22 13:11:00,91.1,74.8,30.13,South,187,7.0,10.0,59,0.00,,,0.00,,VWS V14.01,2013-07-22 17:11:00,
2013-07-22 13:15:00,89.1,73.9,30.15,SSE,167,1.0,9.0,61,0.00,,,0.00,0.00,VWS V14.01,2013-07-22 17:15:00,
2013-07-22 13:16:00,91.1,73.2,30.13,South,175,6.0,6.0,56,0.00,,,0.00,,VWS V14.01,2013-07-22 17:16:00,
2013-07-22 13:21:00,89.7,73.5,30.13,South,183,5.0,10.0,59,0.00,,,0.00,,VWS V14.01,2013-07-22 17:21:00,
2013-07-22 13:26:00,88.8,73.1,30.13,South,181,5.0,10.0,60,0.00,,,0.00,,VWS V14.01,2013-07-22 17:26:00,
2013-07-22 13:30:00,91.8,73.3,30.15,West,280,0.0,10.0,55,0.00,,,0.00,0.00,VWS V14.01,2013-07-22 17:30:00,
2013-07-22 13:31:00,89.3,73.1,30.13,South,171,3.0,9.0,59,0.00,,,0.00,,VWS V14.01,2013-07-22 17:31:00,
2013-07-22 13:36:00,91.4,74.6,30.13,East,93,2.0,9.0,58,0.00,,,0.00,,VWS V14.01,2013-07-22 17:36:00,
2013-07-22 13:41:00,92.6,74.1,30.12,East,97,2.0,9.0,55,0.00,,,0.00,,VWS V14.01,2013-07-22 17:41:00,
2013-07-22 13:45:00,90.7,71.8,30.14,SE,141,4.0,10.0,54,0.00,,,0.00,0.00,VWS V14.01,2013-07-22 17:45:00,
2013-07-22 13:46:00,92.6,73.5,30.12,ENE,74,3.0,9.0,54,0.00,,,0.00,,VWS V14.01,2013-07-22 17:46:00,
2013-07-22 13:51:00,92.0,72.4,30.12,SSE,165,4.0,11.0,53,0.00,,,0.00,,VWS V14.01,2013-07-22 17:51:00,
2013-07-22 13:56:00,90.5,72.7,30.12,South,179,4.0,11.0,56,0.00,,,0.00,,VWS V14.01,2013-07-22 17:56:00,
2013-07-22 14:00:00,90.8,73.5,30.14,WSW,237,1.0,9.0,57,0.00,,,0.00,0.00,VWS V14.01,2013-07-22 18:00:00,
2013-07-22 14:01:00,90.9,72.5,30.12,South,183,3.0,5.0,55,0.00,,,0.00,,VWS V14.01,2013-07-22 18:01:00,
2013-07-22 14:06:00,91.9,72.3,30.12,SE,129,6.0,11.0,53,0.00,,,0.00,,VWS V14.01,2013-07-22 18:06:00,
2013-07-22 14:11:00,92.8,72.6,30.11,SSW,199,4.0,11.0,52,0.00,,,0.00,,VWS V14.01,2013-07-22 18:11:00,
2013-07-22 14:15:00,91.5,74.1,30.14,South,180,2.0,10.0,57,0.00,,,0.00,0.00,VWS V14.01,2013-07-22 18:15:00,
2013-07-22 14:16:00,92.9,72.7,30.11,SSE,153,2.0,8.0,52,0.00,,,0.00,,VWS V14.01,2013-07-22 18:16:00,
2013-07-22 14:21:00,92.2,71.5,30.11,SSW,199,6.0,10.0,51,0.00,,,0.00,,VWS V14.01,2013-07-22 18:21:00,
2013-07-22 14:27:00,91.6,70.3,30.11,South,174,2.0,10.0,50,0.00,,,0.00,,VWS V14.01,2013-07-22 18:27:00,
2013-07-22 14:30:00,89.0,73.3,30.13,SE,137,7.0,10.0,60,0.00,,,0.00,0.00,VWS V14.01,2013-07-22 18:30:00,
2013-07-22 14:32:00,91.5,70.2,30.11,South,180,4.0,10.0,50,0.00,,,0.00,,VWS V14.01,2013-07-22 18:32:00,
2013-07-22 14:37:00,91.2,70.0,30.10,South,186,8.0,11.0,50,0.00,,,0.00,,VWS V14.01,2013-07-22 18:37:00,
2013-07-22 14:42:00,92.3,72.1,30.10,SSW,213,6.0,11.0,52,0.00,,,0.00,,VWS V14.01,2013-07-22 18:42:00,
2013-07-22 14:45:00,92.5,73.4,30.12,SE,125,3.0,9.0,54,0.00,,,0.00,0.00,VWS V14.01,2013-07-22 18:45:00,
2013-07-22 14:47:00,91.3,70.1,30.10,SW,219,2.0,9.0,50,0.00,,,0.00,,VWS V14.01,2013-07-22 18:47:00,
2013-07-22 14:52:00,92.5,72.3,30.10,SSE,166,4.0,9.0,52,0.00,,,0.00,,VWS V14.01,2013-07-22 18:52:00,
2013-07-22 14:57:00,91.9,72.3,30.10,South,178,2.0,11.0,53,0.00,,,0.00,,VWS V14.01,2013-07-22 18:57:00,
2013-07-22 15:00:00,90.7,72.3,30.12,SSW,194,5.0,12.0,55,0.00,,,0.00,0.00,VWS V14.01,2013-07-22 19:00:00,
2013-07-22 15:02:00,93.1,74.0,30.10,ESE,115,2.0,5.0,54,0.00,,,0.00,,VWS V14.01,2013-07-22 19:02:00,
2013-07-22 15:07:00,93.5,73.2,30.10,SE,125,0.0,9.0,52,0.00,,,0.00,,VWS V14.01,2013-07-22 19:07:00,
2013-07-22 15:12:00,94.4,72.3,30.10,SSE,155,4.0,9.0,49,0.00,,,0.00,,VWS V14.01,2013-07-22 19:12:00,
2013-07-22 15:15:00,92.4,72.2,30.11,SE,135,5.0,11.0,52,0.00,,,0.00,0.00,VWS V14.01,2013-07-22 19:15:00,
2013-07-22 15:18:00,91.9,71.2,30.09,SE,138,4.0,7.0,51,0.00,,,0.00,,VWS V14.01,2013-07-22 19:18:00,
2013-07-22 15:23:00,93.0,72.8,30.09,SSE,148,3.0,9.0,52,0.00,,,0.00,,VWS V14.01,2013-07-22 19:23:00,
2013-07-22 15:28:00,93.9,71.8,30.09,SSW,192,4.0,9.0,49,0.00,,,0.00,,VWS V14.01,2013-07-22 19:28:00,
2013-07-22 15:30:00,91.6,71.5,30.11,SSE,161,6.0,11.0,52,0.00,,,0.00,0.00,VWS V14.01,2013-07-22 19:30:00,
2013-07-22 15:33:00,94.5,73.0,30.09,East,86,3.0,8.0,50,0.00,,,0.00,,VWS V14.01,2013-07-22 19:33:00,
2013-07-22 15:38:00,94.4,72.9,30.09,SSE,164,5.0,8.0,50,0.00,,,0.00,,VWS V14.01,2013-07-22 19:38:00,
2013-07-22 15:43:00,96.1,73.2,30.09,SE,138,2.0,8.0,48,0.00,,,0.00,,VWS V14.01,2013-07-22 19:43:00,
2013-07-22 15:45:00,92.1,70.8,30.10,WSW,246,5.0,11.0,50,0.00,,,0.00,0.00,VWS V14.01,2013-07-22 19:45:00,
2013-07-22 15:48:00,95.3,71.9,30.09,ESE,120,3.0,7.0,47,0.00,,,0.00,,VWS V14.01,2013-07-22 19:48:00,
2013-07-22 15:53:00,93.5,72.7,30.09,SSE,150,6.0,7.0,51,0.00,,,0.00,,VWS V14.01,2013-07-22 19:53:00,
2013-07-22 15:58:00,94.6,73.7,30.09,ENE,78,1.0,7.0,51,0.00,,,0.00,,VWS V14.01,2013-07-22 19:58:00,
2013-07-22 16:00:00,92.0,72.4,30.10,ESE,121,1.0,11.0,53,0.00,,,0.00,0.00,VWS V14.01,2013-07-22 20:00:00,
2013-07-22 16:04:00,95.5,73.9,30.08,South,191,2.0,6.0,50,0.00,,,0.00,,VWS V14.01,2013-07-22 20:04:00,
2013-07-22 16:09:00,95.0,74.1,30.08,ESE,103,2.0,11.0,51,0.00,,,0.00,,VWS V14.01,2013-07-22 20:09:00,
2013-07-22 16:14:00,96.2,73.9,30.08,SSE,164,8.0,11.0,49,0.00,,,0.00,,VWS V14.01,2013-07-22 20:14:00,
2013-07-22 16:15:00,93.3,70.7,30.10,South,184,7.0,10.0,48,0.00,,,0.00,0.00,VWS V14.01,2013-07-22 20:15:00,
2013-07-22 16:16:00,95.2,74.2,30.08,SSE,167,3.0,7.0,51,0.00,,,0.00,,VWS V14.01,2013-07-22 20:16:00,
2013-07-22 16:17:00,95.2,74.2,30.08,SSE,167,1.0,7.0,51,0.00,,,0.00,,VWS V14.01,2013-07-22 20:17:00,
2013-07-22 16:22:00,93.8,74.1,30.08,South,189,2.0,9.0,53,0.00,,,0.00,,VWS V14.01,2013-07-22 20:22:00,
2013-07-22 16:27:00,93.5,73.8,30.08,SSE,159,3.0,9.0,53,0.00,,,0.00,,VWS V14.01,2013-07-22 20:27:00,
2013-07-22 16:30:00,94.1,72.0,30.09,South,175,4.0,9.0,49,0.00,,,0.00,0.00,VWS V14.01,2013-07-22 20:30:00,
2013-07-22 16:32:00,93.8,74.1,30.08,East,84,6.0,6.0,53,0.00,,,0.00,,VWS V14.01,2013-07-22 20:32:00,
2013-07-22 16:37:00,94.7,74.3,30.08,SE,146,4.0,6.0,52,0.00,,,0.00,,VWS V14.01,2013-07-22 20:37:00,
2013-07-22 16:42:00,93.3,74.2,30.08,WNW,291,2.0,11.0,54,0.00,,,0.00,,VWS V14.01,2013-07-22 20:42:00,
2013-07-22 16:43:00,93.4,74.3,30.08,East,86,3.0,11.0,54,0.00,,,0.00,,VWS V14.01,2013-07-22 20:43:00,
2013-07-22 16:45:00,96.3,72.8,30.09,SSE,165,2.0,8.0,47,0.00,,,0.00,0.00,VWS V14.01,2013-07-22 20:45:00,
2013-07-22 16:48:00,95.1,74.1,30.08,ESE,103,0.0,6.0,51,0.00,,,0.00,,VWS V14.01,2013-07-22 20:48:00,
2013-07-22 16:53:00,95.9,73.7,30.08,ENE,77,3.0,8.0,49,0.00,,,0.00,,VWS V14.01,2013-07-22 20:53:00,
2013-07-22 16:58:00,95.3,73.7,30.08,ESE,117,1.0,8.0,50,0.00,,,0.00,,VWS V14.01,2013-07-22 20:58:00,
2013-07-22 17:00:00,95.0,74.6,30.09,East,98,2.0,7.0,52,0.00,,,0.00,0.00,VWS V14.01,2013-07-22 21:00:00,
2013-07-22 17:03:00,94.9,73.9,30.08,SSE,155,2.0,5.0,51,0.00,,,0.00,,VWS V14.01,2013-07-22 21:03:00,
2013-07-22 17:08:00,94.5,73.6,30.08,East,90,3.0,6.0,51,0.00,,,0.00,,VWS V14.01,2013-07-22 21:08:00,
2013-07-22 17:13:00,95.0,74.1,30.07,East,84,0.0,6.0,51,0.00,,,0.00,,VWS V14.01,2013-07-22 21:13:00,
2013-07-22 17:15:00,96.0,73.8,30.08,South,180,7.0,11.0,49,0.00,,,0.00,0.00,VWS V14.01,2013-07-22 21:15:00,
2013-07-22 17:18:00,95.0,74.6,30.07,ESE,107,4.0,7.0,52,0.00,,,0.00,,VWS V14.01,2013-07-22 21:18:00,
2013-07-22 17:23:00,94.2,74.5,30.07,ESE,112,3.0,10.0,53,0.00,,,0.00,,VWS V14.01,2013-07-22 21:23:00,
2013-07-22 17:28:00,92.4,75.0,30.07,SE,144,2.0,10.0,57,0.00,,,0.00,,VWS V14.01,2013-07-22 21:28:00,
2013-07-22 17:30:00,93.8,74.1,30.08,SSE,163,5.0,9.0,53,0.00,,,0.00,0.00,VWS V14.01,2013-07-22 21:30:00,
2013-07-22 17:33:00,92.0,74.6,30.07,SE,124,3.0,7.0,57,0.00,,,0.00,,VWS V14.01,2013-07-22 21:33:00,
2013-07-22 17:38:00,91.5,75.2,30.07,East,95,1.0,8.0,59,0.00,,,0.00,,VWS V14.01,2013-07-22 21:38:00,
2013-07-22 17:43:00,91.1,74.8,30.07,ESE,123,5.0,8.0,59,0.00,,,0.00,,VWS V14.01,2013-07-22 21:43:00,
2013-07-22 17:45:00,94.0,74.8,30.08,SE,125,2.0,11.0,54,0.00,,,0.00,0.00,VWS V14.01,2013-07-22 21:45:00,
2013-07-22 17:48:00,91.0,74.7,30.07,ENE,73,0.0,8.0,59,0.00,,,0.00,,VWS V14.01,2013-07-22 21:48:00,
2013-07-22 17:53:00,91.6,75.2,30.07,East,92,0.0,8.0,59,0.00,,,0.00,,VWS V14.01,2013-07-22 21:53:00,
2013-07-22 17:58:00,91.2,74.4,30.07,SSE,168,0.0,9.0,58,0.00,,,0.00,,VWS V14.01,2013-07-22 21:58:00,
2013-07-22 18:00:00,95.3,73.7,30.08,SSE,165,3.0,8.0,50,0.00,,,0.00,0.00,VWS V14.01,2013-07-22 22:00:00,
2013-07-22 18:03:00,90.3,74.0,30.07,SE,130,3.0,9.0,59,0.00,,,0.00,,VWS V14.01,2013-07-22 22:03:00,
2013-07-22 18:08:00,89.9,74.2,30.07,East,94,1.0,9.0,60,0.00,,,0.00,,VWS V14.01,2013-07-22 22:08:00,
2013-07-22 18:13:00,90.5,74.7,30.07,East,90,7.0,9.0,60,0.00,,,0.00,,VWS V14.01,2013-07-22 22:13:00,
2013-07-22 18:15:00,95.3,74.9,30.08,ESE,117,1.0,6.0,52,0.00,,,0.00,0.00,VWS V14.01,2013-07-22 22:15:00,
2013-07-22 18:18:00,90.8,74.5,30.07,East,98,5.0,7.0,59,0.00,,,0.00,,VWS V14.01,2013-07-22 22:18:00,
2013-07-22 18:23:00,90.2,74.4,30.08,SE,134,2.0,9.0,60,0.00,,,0.00,,VWS V14.01,2013-07-22 22:23:00,
2013-07-22 18:28:00,89.7,74.5,30.08,East,92,0.0,9.0,61,0.00,,,0.00,,VWS V14.01,2013-07-22 22:28:00,
2013-07-22 18:30:00,92.2,75.3,30.08,NNE,30,1.0,10.0,58,0.00,,,0.00,0.00,VWS V14.01,2013-07-22 22:30:00,
2013-07-22 18:33:00,89.8,74.6,30.08,SE,132,2.0,6.0,61,0.00,,,0.00,,VWS V14.01,2013-07-22 22:33:00,
2013-07-22 18:38:00,89.5,74.8,30.08,East,101,6.0,8.0,62,0.00,,,0.00,,VWS V14.01,2013-07-22 22:38:00,
2013-07-22 18:43:00,90.3,74.5,30.08,ESE,117,1.0,8.0,60,0.00,,,0.00,,VWS V14.01,2013-07-22 22:43:00,
2013-07-22 18:45:00,91.1,74.8,30.07,SSE,156,1.0,8.0,59,0.00,,,0.00,0.00,VWS V14.01,2013-07-22 22:45:00,
2013-07-22 18:48:00,90.8,75.0,30.08,SE,126,6.0,6.0,60,0.00,,,0.00,,VWS V14.01,2013-07-22 22:48:00,
2013-07-22 18:53:00,91.1,75.3,30.08,ESE,104,1.0,6.0,60,0.00,,,0.00,,VWS V14.01,2013-07-22 22:53:00,
2013-07-22 18:58:00,91.1,75.3,30.08,ENE,72,1.0,6.0,60,0.00,,,0.00,,VWS V14.01,2013-07-22 22:58:00,
2013-07-22 19:00:00,90.8,74.5,30.07,ESE,105,2.0,9.0,59,0.00,,,0.00,0.00,VWS V14.01,2013-07-22 23:00:00,
2013-07-22 19:03:00,91.0,75.7,30.08,East,83,5.0,7.0,61,0.00,,,0.00,,VWS V14.01,2013-07-22 23:03:00,
2013-07-22 19:08:00,90.3,75.0,30.08,NE,56,1.0,9.0,61,0.00,,,0.00,,VWS V14.01,2013-07-22 23:08:00,
2013-07-22 19:13:00,89.9,75.1,30.08,ENE,71,1.0,9.0,62,0.00,,,0.00,,VWS V14.01,2013-07-22 23:13:00,
2013-07-22 19:15:00,90.6,74.8,30.07,East,91,2.0,9.0,60,0.00,,,0.00,0.00,VWS V14.01,2013-07-22 23:15:00,
2013-07-22 19:18:00,89.7,75.4,30.08,ESE,103,7.0,7.0,63,0.00,,,0.00,,VWS V14.01,2013-07-22 23:18:00,
2013-07-22 19:23:00,89.3,75.5,30.08,SSE,168,2.0,7.0,64,0.00,,,0.00,,VWS V14.01,2013-07-22 23:23:00,
2013-07-22 19:28:00,89.0,75.7,30.08,ESE,117,1.0,8.0,65,0.00,,,0.00,,VWS V14.01,2013-07-22 23:28:00,
2013-07-22 19:30:00,89.8,74.6,30.08,ESE,115,2.0,9.0,61,0.00,,,0.00,0.00,VWS V14.01,2013-07-22 23:30:00,
2013-07-22 19:33:00,88.4,75.6,30.08,East,98,2.0,9.0,66,0.00,,,0.00,,VWS V14.01,2013-07-22 23:33:00,
2013-07-22 19:38:00,88.3,75.5,30.08,SE,134,0.0,9.0,66,0.00,,,0.00,,VWS V14.01,2013-07-22 23:38:00,
2013-07-22 19:43:00,88.4,75.6,30.08,South,183,2.0,9.0,66,0.00,,,0.00,,VWS V14.01,2013-07-22 23:43:00,
2013-07-22 19:45:00,90.5,74.7,30.08,East,96,0.0,8.0,60,0.00,,,0.00,0.00,VWS V14.01,2013-07-22 23:45:00,
2013-07-22 19:48:00,88.3,75.5,30.08,SSE,147,2.0,5.0,66,0.00,,,0.00,,VWS V14.01,2013-07-22 23:48:00,
2013-07-22 20:00:00,87.3,75.0,30.09,East,90,1.0,5.0,67,0.00,,,0.00,,VWS V14.01,2013-07-23 00:00:00,
2013-07-22 20:15:00,89.9,75.6,30.08,ENE,74,2.0,9.0,63,0.00,,,0.00,0.00,VWS V14.01,2013-07-23 00:15:00,
2013-07-22 20:30:00,88.7,75.4,30.08,ESE,119,7.0,8.0,65,0.00,,,0.00,0.00,VWS V14.01,2013-07-23 00:30:00,
2013-07-22 20:45:00,88.5,75.7,30.08,ESE,110,2.0,9.0,66,0.00,,,0.00,0.00,VWS V14.01,2013-07-23 00:45:00,
2013-07-22 21:00:00,87.3,75.0,30.09,East,90,1.0,5.0,67,0.00,,,0.00,0.00,VWS V14.01,2013-07-23 01:00:00,